Location: Proctor
(47.8934°N, 114.3048°W)
Time: 22:24:07
(UTC+00:00)

Tiros 1 despin weight - Pass Details

Date: 04 July 2024
Orbit: 576 x 620 km, 48.2° (Epoch: 19 July)

Event Time Altitude Azimuth Distance (km) Brightness Sun altitude
Rises 16:18:23 0° 248° (WSW) 2,853 ? 42.7°
Reaches altitude 10° 16:20:40 10° 246° (WSW) 1,958 ? 43.0°
Maximum altitude 16:25:09 71° 163° (SSE) 652 ? 43.8°
Drops below altitude 10° 16:29:42 10° 80° (E) 1,983 ? 44.5°
Sets 16:32:02 0° 78° (ENE) 2,893 ? 44.9°
